Location: ?????????
(54.7630°N, 39.4991°E)
Time: 18:44:16
(UTC+00:00)

SPOT 3 Rocket - Pass Details

Date: 14 April 2026
Orbit: 774 x 791 km, 98.5° (Epoch: 19 May)

Event Time Altitude Azimuth Distance (km) Brightness Sun altitude
Exits shadow 17:44:42 15° 131° (SE) 2,022 5.0 -11.2°
Maximum altitude 17:48:42 45° 64° (ENE) 1,074 4.1 -11.7°
Drops below altitude 10° 17:53:38 10° 353° (N) 2,357 6.7 -12.3°
Sets 17:56:02 0° 348° (NNW) 3,287 7.6 -12.6°
